STARLINK-32753, 62481

Orbit data source: Space-Track

STARLINK-32753, 62481 is a payload satellite owned by SpaceX/Seattle (US) in LEO that was launched on Tue, 31 Dec 2024 UTC via an FALCON 9 launch vehicle from the Air Force Eastern Test Range (AFETR). Payload-class satellites include a variety of spacecraft equipped with specific instruments for various scientific and technological missions. These include communications satellites like Starlink; space stations such as the ISS; scientific satellites like the Hubble; Earth observation satellites from companies like Planet Labs, Umbra, and HawkEye 360; GPS; miniature CubeSats for education and research; and military/defense satellites.

Loading next visibility...
Identifier
62481, 2024-254V
Orbit
LEO
Country
Flag of USUS
Related business
Manufacturer
SpaceX/Seattle
Mission
Operational Commercial Communications
Bus & Motor
STARLINK V2M, Unknown motor
Mass
730 kg wet, ~700 kg dry
Launch date (UTC)
2024-12-31 (9 months ago)
Launch vehicle
FALCON 9
Launch site
Air Force Eastern Test Range (AFETR)
Object type
Payload
Rocket body
Debris
Shape & HBR
Box + 2 Pan, 14.5 m
Radar Cross Section
33.884 m², Large (>1 m²)

Expand to show TLE details & history
Last TLE update: 18 hours ago

TLE from 18 hours ago
0 STARLINK-32753
1 62481U 24254V   25258.37189726  .00043982  00000-0  15976-2 0  9999
2 62481  43.0054 286.1939 0002000 272.7318  87.3305 15.27593099 40841
Epoch: 2025-09-15T08:55Z
TLE epoch observation values (Epoch: 2025-09-15T08:55:31.923Z)
Latitude
Longitude
157.73339°
Altitude
482.722 km
Speed
7.626 km/s
True Right ascension
19h 04m 46s
True Declination
0° 00' 00"
Sunlit
Object was in full shadow at epoch
Visualization orbit readout
Latitude
Unknown
Longitude
Unknown
Altitude
Unknown
Speed
Unknown
Apparent Right ascension
Unknown
Apparent Declination
Unknown
Sunlit
N/A
Visualization observer readout
Local Sidereal Time
19:49:22
Azimuth
Unknown
Elevation
Unknown
Doppler factor
Unknown
Orbital elements
Apogee altitude
486.327 km
Perigee altitude
483.582 km
Semi-major axis
6,863.091 km
Eccentricity
0.0002
Inclination
43.0054°
RAAN
286.1939°
Arg. of periapsis
272.7318°
True anomaly
87.35339°
Mean anomaly
87.3305°
Eccentric anomaly
87.34195°
Mean motion
3.81736 °/min
Orbital period
94.31 mins
BSTAR
0.0015976
Loading maneuver chart data...
Computing Atmospheric mass density...
Loading historical data...
Loading historical data...
Loading historical data...
Loading historical data...
Loading historical data...
Loading historical data...
Loading historical data...

Documentation

Showing up to 5 results
|